Regional Weather Roundup
Issued by NWS Charleston, WV

Home | Current Version | Previous Version | Text Only | Print | Product List | Glossary Off
Versions: 1 2 3 4 5 6 7 8 9 10 11 12 13 14 15 16 17 18 19 20 21 22 23 24 25 26 27

000
ASUS41 KRLX 292310
RWRRLX
West Virginia Regional Weather Roundup
National Weather Service Charleston WV
700 PM EDT WED MAR 29 2017

Note: "fair" indicates few or no clouds below 12,000 feet with no
significant weather and/or obstructions to visibility.

WVZ003-300000-
Northern Panhandle of West Virginia

CITY           SKY/WX    TMP DP  RH WIND       PRES   REMARKS
WHEELING       CLEAR     58  29  33 N6        30.16R
$$

WVZ009-300000-
Northwest West Virginia

CITY           SKY/WX    TMP DP  RH WIND       PRES   REMARKS
PARKERSBURG    CLEAR     62  38  40 E5        30.15S
$$

WVZ006-300000-
Western West Virginia

CITY           SKY/WX    TMP DP  RH WIND       PRES   REMARKS
HUNTINGTON     CLEAR     57  45  64 NE7       30.10F
$$

WVZ015-300000-
West Central West Virginia

CITY           SKY/WX    TMP DP  RH WIND       PRES   REMARKS
CHARLESTON     PTCLDY    60  44  55 NE7       30.11R
$$

WVZ022-031-300000-
North Central West Virginia

CITY           SKY/WX    TMP DP  RH WIND       PRES   REMARKS
CLARKSBURG     CLEAR     59  36  42 N3        30.13S
MORGANTOWN     CLEAR     58  34  40 N8        30.15S
$$

WVZ025-035-042-045-300000-
Southern West Virginia

CITY           SKY/WX    TMP DP  RH WIND       PRES   REMARKS
BECKLEY        CLEAR     59  45  59 N10       30.10S
LOGAN            N/A     61  46  59 CALM      30.09S
BLUEFIELD      PTCLDY    65  43  44 NE8       30.09R
LEWISBURG      CLEAR     65  43  45 NW3       30.09R
$$

WVZ047-300000-
Northern Mountains of West Virginia

CITY           SKY/WX    TMP DP  RH WIND       PRES   REMARKS
ELKINS         CLEAR     59  36  42 N6        30.13F
$$

WVZ052-300000-
Eastern Panhandle of West Virginia

CITY           SKY/WX    TMP DP  RH WIND       PRES   REMARKS
MARTINSBURG    CLEAR     60  36  40 E10       30.11R
PETERSBURG     CLEAR     64  40  41 E6        30.10S
$$




USA.gov is the U.S. government's official web portal to all federal, state and local government web resources and services.